When you browse on this site, cookies collect data to enhance your experience and personalize the content and advertising you see.
Visit our Privacy Policy to learn more. By continuing to use the site, you agree to this use of cookies and data.
  • en Suisse
  • Liste des pays
  • À 7 jours
  • Température de l'eau
  • Carte météo
  • Widgets météo
  • user-avatar
    Se connecter

    Météo par heure à Stafford

    Ce jour, 23 Septembre, Lundi

    Heure Température Précipitation Vent Pression Humidité
    00:00 +12°C° 0 mm 3 m/s 745 mmHg 95%
    01:00 +12°C° 0 mm 3 m/s 746 mmHg 95%
    02:00 +12°C° 0 mm 3 m/s 746 mmHg 95%
    03:00 +11°C° 0 mm 3 m/s 746 mmHg 96%
    04:00 +11°C° 0 mm 3 m/s 746 mmHg 95%
    05:00 +11°C° 0 mm 3 m/s 747 mmHg 94%
    06:00 +11°C° 0 mm 3 m/s 747 mmHg 92%
    07:00 +12°C° 0 mm 3 m/s 748 mmHg 88%
    08:00 +13°C° 0 mm 4 m/s 748 mmHg 84%
    09:00 +14°C° 0 mm 4 m/s 748 mmHg 80%
    10:00 +15°C° 0 mm 5 m/s 748 mmHg 76%
    11:00 +16°C° 0 mm 5 m/s 748 mmHg 71%
    12:00 +17°C° 0 mm 5 m/s 748 mmHg 66%
    13:00 +17°C° 0 mm 6 m/s 748 mmHg 67%
    14:00 +17°C° 0 mm 6 m/s 747 mmHg 68%
    15:00 +19°C° 0 mm 6 m/s 747 mmHg 69%
    16:00 +16°C° 0.6 mm 6 m/s 747 mmHg 76%
    17:00 +15°C° 0.6 mm 6 m/s 746 mmHg 82%
    18:00 +14°C° 0.6 mm 6 m/s 746 mmHg 89%
    19:00 +14°C° 0 mm 6 m/s 746 mmHg 90%
    20:00 +14°C° 0 mm 6 m/s 746 mmHg 91%
    21:00 +15°C° 0 mm 6 m/s 746 mmHg 91%
    22:00 +15°C° 0 mm 5 m/s 746 mmHg 92%
    23:00 +15°C° 0 mm 5 m/s 745 mmHg 93%

    Demain, 24 Septembre, Mardi

    Heure Température Précipitation Vent Pression Humidité
    00:00 +15°C° 0 mm 4 m/s 745 mmHg 95%
    01:00 +15°C° 0 mm 4 m/s 744 mmHg 94%
    02:00 +15°C° 0 mm 4 m/s 744 mmHg 94%
    03:00 +15°C° 0 mm 4 m/s 743 mmHg 94%
    04:00 +15°C° 0.5 mm 4 m/s 743 mmHg 94%
    05:00 +15°C° 0.5 mm 4 m/s 742 mmHg 95%
    06:00 +15°C° 0.5 mm 4 m/s 741 mmHg 95%
    07:00 +15°C° 4.3 mm 4 m/s 741 mmHg 95%
    08:00 +16°C° 4.3 mm 3 m/s 740 mmHg 95%
    09:00 +16°C° 4.3 mm 3 m/s 740 mmHg 95%
    10:00 +15°C° 3.6 mm 4 m/s 740 mmHg 95%
    11:00 +15°C° 3.6 mm 5 m/s 740 mmHg 94%
    12:00 +15°C° 3.6 mm 6 m/s 740 mmHg 94%
    13:00 +15°C° 1 mm 5 m/s 740 mmHg 90%
    14:00 +16°C° 1 mm 5 m/s 740 mmHg 86%
    15:00 +17°C° 1 mm 4 m/s 740 mmHg 83%
    16:00 +15°C° 0 mm 4 m/s 740 mmHg 84%
    17:00 +14°C° 0 mm 4 m/s 740 mmHg 85%
    18:00 +14°C° 0 mm 4 m/s 740 mmHg 86%
    19:00 +13°C° 0.1 mm 4 m/s 740 mmHg 87%
    20:00 +13°C° 0.1 mm 4 m/s 741 mmHg 89%
    21:00 +13°C° 0.1 mm 5 m/s 741 mmHg 91%
    22:00 +13°C° 0.7 mm 5 m/s 740 mmHg 92%
    23:00 +13°C° 0.7 mm 6 m/s 740 mmHg 93%

    Après-demain, 25 Septembre, Mercredi

    Heure Température Précipitation Vent Pression Humidité
    00:00 +13°C° 0.7 mm 6 m/s 739 mmHg 94%
    01:00 +13°C° 0.1 mm 5 m/s 739 mmHg 94%
    02:00 +12°C° 0.1 mm 4 m/s 739 mmHg 94%
    03:00 +12°C° 0.1 mm 4 m/s 739 mmHg 95%
    04:00 +12°C° 0 mm 3 m/s 739 mmHg 95%
    05:00 +13°C° 0 mm 2 m/s 738 mmHg 96%
    06:00 +13°C° 0 mm 2 m/s 738 mmHg 96%
    07:00 +14°C° 0 mm 2 m/s 739 mmHg 94%
    08:00 +15°C° 0 mm 2 m/s 739 mmHg 92%
    09:00 +15°C° 0 mm 2 m/s 740 mmHg 90%
    10:00 +16°C° 0.1 mm 2 m/s 740 mmHg 86%
    11:00 +17°C° 0.1 mm 2 m/s 741 mmHg 82%
    12:00 +18°C° 0.1 mm 3 m/s 741 mmHg 78%
    13:00 +18°C° 0.3 mm 3 m/s 741 mmHg 79%
    14:00 +18°C° 0.3 mm 3 m/s 741 mmHg 80%
    15:00 +18°C° 0.3 mm 3 m/s 741 mmHg 81%
    16:00 +17°C° 0.1 mm 3 m/s 742 mmHg 84%
    17:00 +16°C° 0.1 mm 3 m/s 742 mmHg 86%
    18:00 +15°C° 0.1 mm 2 m/s 742 mmHg 89%
    19:00 +14°C° 0.1 mm 3 m/s 742 mmHg 90%
    20:00 +14°C° 0.1 mm 3 m/s 742 mmHg 92%
    21:00 +13°C° 0.1 mm 3 m/s 742 mmHg 93%
    22:00 +14°C° 0.7 mm 4 m/s 741 mmHg 93%
    23:00 +15°C° 0.7 mm 6 m/s 741 mmHg 93%

    26 Septembre, Jeudi

    Heure Température Précipitation Vent Pression Humidité
    00:00 +15°C° 0.7 mm 7 m/s 740 mmHg 93%
    01:00 +15°C° 0.1 mm 6 m/s 740 mmHg 92%
    02:00 +15°C° 0.1 mm 6 m/s 740 mmHg 92%
    03:00 +15°C° 0.1 mm 6 m/s 740 mmHg 91%
    04:00 +15°C° 0.2 mm 6 m/s 740 mmHg 92%
    05:00 +15°C° 0.2 mm 5 m/s 740 mmHg 93%
    06:00 +15°C° 0.2 mm 5 m/s 740 mmHg 94%
    07:00 +15°C° 0.1 mm 5 m/s 741 mmHg 88%
    08:00 +14°C° 0.1 mm 6 m/s 741 mmHg 83%
    09:00 +14°C° 0.1 mm 7 m/s 741 mmHg 77%
    10:00 +15°C° 0.1 mm 7 m/s 742 mmHg 75%
    11:00 +16°C° 0.1 mm 7 m/s 742 mmHg 72%
    12:00 +16°C° 0.1 mm 7 m/s 742 mmHg 70%
    13:00 +16°C° 0.1 mm 7 m/s 742 mmHg 71%
    14:00 +16°C° 0.1 mm 7 m/s 742 mmHg 71%
    15:00 +16°C° 0.1 mm 7 m/s 742 mmHg 72%
    16:00 +15°C° 0.1 mm 7 m/s 742 mmHg 75%
    17:00 +14°C° 0.1 mm 6 m/s 742 mmHg 79%
    18:00 +14°C° 0.1 mm 6 m/s 742 mmHg 82%
    19:00 +13°C° 0 mm 6 m/s 742 mmHg 84%
    20:00 +12°C° 0 mm 5 m/s 743 mmHg 85%
    21:00 +12°C° 0 mm 5 m/s 743 mmHg 87%
    22:00 +12°C° 0 mm 5 m/s 743 mmHg 87%
    23:00 +12°C° 0 mm 5 m/s 743 mmHg 87%

    27 Septembre, Vendredi

    Heure Température Précipitation Vent Pression Humidité
    00:00 +12°C° 0 mm 4 m/s 743 mmHg 87%
    01:00 +12°C° 0 mm 4 m/s 743 mmHg 86%
    02:00 +12°C° 0 mm 4 m/s 743 mmHg 86%
    03:00 +12°C° 0 mm 4 m/s 742 mmHg 85%
    04:00 +12°C° 0 mm 5 m/s 742 mmHg 86%
    05:00 +10°C° 0 mm 5 m/s 742 mmHg 87%
    06:00 +10°C° 0 mm 5 m/s 742 mmHg 87%
    07:00 +12°C° 0 mm 5 m/s 742 mmHg 84%
    08:00 +13°C° 0 mm 6 m/s 742 mmHg 81%
    09:00 +14°C° 0 mm 7 m/s 742 mmHg 78%
    10:00 +14°C° 0.2 mm 7 m/s 742 mmHg 76%
    11:00 +15°C° 0.2 mm 8 m/s 742 mmHg 74%
    12:00 +15°C° 0.2 mm 9 m/s 741 mmHg 72%
    13:00 +15°C° 0.2 mm 8 m/s 741 mmHg 74%
    14:00 +13°C° 0.2 mm 8 m/s 741 mmHg 76%
    15:00 +13°C° 0.2 mm 8 m/s 741 mmHg 79%
    16:00 +12°C° 0.9 mm 7 m/s 741 mmHg 83%
    17:00 +12°C° 0.9 mm 7 m/s 741 mmHg 87%
    18:00 +11°C° 0.9 mm 7 m/s 741 mmHg 91%
    19:00 +11°C° 0.9 mm 6 m/s 741 mmHg 91%
    20:00 +12°C° 0.9 mm 5 m/s 741 mmHg 91%
    21:00 +11°C° 0.9 mm 4 m/s 742 mmHg 91%
    22:00 +11°C° 0 mm 4 m/s 742 mmHg 91%
    23:00 +10°C° 0 mm 4 m/s 742 mmHg 91%

    28 Septembre, Samedi

    Heure Température Précipitation Vent Pression Humidité
    00:00 +8°C° 0 mm 4 m/s 742 mmHg 91%
    01:00 +8°C° 0 mm 4 m/s 742 mmHg 91%
    02:00 +8°C° 0 mm 4 m/s 742 mmHg 91%
    03:00 +8°C° 0 mm 4 m/s 742 mmHg 91%
    04:00 +8°C° 0 mm 4 m/s 743 mmHg 91%
    05:00 +7°C° 0 mm 4 m/s 743 mmHg 92%
    06:00 +7°C° 0 mm 4 m/s 743 mmHg 92%
    07:00 +8°C° 0 mm 5 m/s 743 mmHg 88%
    08:00 +10°C° 0 mm 5 m/s 744 mmHg 85%
    09:00 +11°C° 0 mm 6 m/s 744 mmHg 81%
    10:00 +13°C° 0 mm 6 m/s 744 mmHg 77%
    11:00 +14°C° 0 mm 6 m/s 744 mmHg 72%
    12:00 +15°C° 0 mm 6 m/s 744 mmHg 68%
    13:00 +15°C° 0.1 mm 6 m/s 744 mmHg 68%
    14:00 +15°C° 0.1 mm 6 m/s 744 mmHg 68%
    15:00 +15°C° 0.1 mm 5 m/s 744 mmHg 68%
    16:00 +14°C° 0 mm 4 m/s 744 mmHg 74%
    17:00 +13°C° 0 mm 4 m/s 745 mmHg 79%
    18:00 +11°C° 0 mm 3 m/s 745 mmHg 85%
    19:00 +11°C° 0 mm 3 m/s 745 mmHg 87%
    20:00 +10°C° 0 mm 2 m/s 745 mmHg 90%
    21:00 +10°C° 0 mm 2 m/s 745 mmHg 92%
    22:00 +9°C° 0 mm 2 m/s 745 mmHg 93%
    23:00 +9°C° 0 mm 2 m/s 745 mmHg 94%
    Voir plus